Regional Weather Roundup
Issued by NWS Cleveland, OH

Home | Current Version | Previous Version | Graphics & Text | Print | Product List | Glossary On
Versions: 1 2 3 4 5 6 7 8 9 10 11 12 13 14 15 16 17 18 19 20 21 22 23 24 25 26 27 28 29 30 31 32 33 34 35 36 37 38 39 40 41 42 43 44 45 46 47 48 49 50
000
ASUS41 KCLE 242210
RWRCLE
OHIO REGIONAL WEATHER ROUNDUP
NATIONAL WEATHER SERVICE CLEVELAND, OH
600 PM EDT TUE MAY 24 2016

NOTE: "FAIR" INDICATES FEW OR NO CLOUDS BELOW 12,000 FEET WITH NO
SIGNIFICANT WEATHER AND/OR OBSTRUCTIONS TO VISIBILITY.

OHZ001>008-015>018-024>027-034-035-043-044-242300-
   NORTHWEST OHIO

CITY           SKY/WX    TMP DP  RH WIND       PRES   REMARKS
DEFIANCE       SUNNY     85  45  24 W6        30.00F
FINDLAY        SUNNY     82  39  21 SW10      30.00F
TOLEDO EXPRESS SUNNY     83  44  25 S12       29.98F
TOLEDO EXEC    SUNNY     84  42  22 W8        30.00F
LIMA           SUNNY     81  40  23 MISG      30.03F
$$

OHZ009>014-019>023-028>033-038-089-242300-
   NORTHEAST OHIO

CITY           SKY/WX    TMP DP  RH WIND       PRES   REMARKS
CLE-HOPKINS    MOSUNNY   82  43  25 NW8       30.04F
CLE-LAKEFRONT  SUNNY     75  47  36 NW3       30.02F
CUY CO. ARPT   SUNNY     81  37  21 NW7       30.05F
LORAIN-ELYRIA  SUNNY     80  41  24 NE7       30.02F
ASHTABULA      SUNNY     78  35  21 NW13      30.05S
AKRON-CANTON   MOSUNNY   79  46  31 NW9       30.04F
WOOSTER        SUNNY     79  46  31 W9        30.05F
MANSFIELD      SUNNY     80  43  26 W9        30.05F
YOUNGSTOWN     MOSUNNY   79  46  31 W7        30.03F
$$

OHZ042-051>053-060>062-070>072-077>081-242300-
  SOUTHWEST OHIO

CITY           SKY/WX    TMP DP  RH WIND       PRES   REMARKS
CINC-COVINGTON MOSUNNY   80  46  30 SW7       30.07S
CINC-LUNKEN    SUNNY     79  46  31 SW7       30.05F
HAMILTON       SUNNY     82  45  27 W5        30.06F
DAYTON         MOSUNNY   79  47  32 SW8       30.06F
WRIGHT-PAT AFB SUNNY     80  46  29 SW6       30.05F
DAYTON GENERAL SUNNY     79  44  28 S9        30.06S
WILMINGTON     SUNNY     79  50  36 S8        30.06F
$$

OHZ036-037-039>041-045>050-054>059-063>069-073>076-082>088-242300-
  CENTRAL AND SOUTHEAST OHIO

CITY           SKY/WX    TMP DP  RH WIND       PRES   REMARKS
COLUMBUS       MOSUNNY   79  48  33 W13       30.04F
OSU AIRPORT    SUNNY     81  47  30 SW10      30.04F
BOLTON FIELD   SUNNY     81  52  36 SW9G18    30.05F
RICKENBACK AFB SUNNY     79  51  36 W12       30.04F
NEWARK         SUNNY     81  49  32 SW10      30.04F
MARION         SUNNY     80  42  25 SW9       30.04F
LANCASTER      SUNNY     78  51  38 SW9       30.06F
ZANESVILLE     MOSUNNY   81  50  33 W8        30.06F
NEW PHILLY     SUNNY     82  47  29 W7        30.05F
$$



USA.gov is the U.S. government's official web portal to all federal, state and local government web resources and services.